ITUPSAT1

Last updated on Thu Nov 21 2024 00:03:02 GMT+0000 (Coordinated Universal Time)

1 35935U 09051E 24325.15600255 .00002118 00000+0 46442-3 0 9994 2 35935 98.4520 211.8861 0006729 209.9941 150.0873 14.58682320804993
UTC large
Height (km)
Speed (km/s)
/
Latitude / Longitude
Inclination (degrees)
Orbital Period (minutes)
Azimuth
Elevation
Range (km)
Doppler Factor

Next 0 passes for location: London (51.5072 / 0.1276)

Sorry there are no passes over London.